User: anonymous   Login
Location: Unspecified
(0.0000°N, 0.0000°E)
Time: 00:55:25
(UTC+00:00)
Language:

FORMOSAT 3F - Orbit

View from above orbital plane
View from above orbital plane
View from above satellite
View from above satellite

Ground track
Ground track

The orbit data is extracted from the following two-line orbital elements,

1 29052U 06011F   17324.45610314  .00000105  00000-0  57530-4 0  9997
2 29052  72.0342 281.8487 0040981 199.1831 160.7765 14.28724702606258
Epoch (UTC): 20 November 2017 10:56:47
Eccentricity: 0.0040981
inclination: 72.0342°
perigee height: 766 km
apogee height: 825 km
right ascension of ascending node: 281.8487°
argument of perigee: 199.1831°
revolutions per day: 14.28724702
mean anomaly at epoch: 160.7765°
orbit number at epoch: 60625

The dashed part of the orbit path shows where the satellite is in the earth's shadow,  

DLR